• In Hungary
  • List of Countries
  • For 7 days
  • Water Temperature
  • Satellite Maps
  • Weather Map
  • News
  • Weather Widgets
  • user-avatar
    Login

    Hourly Weather Kostikov

    Today, 22 October, Monday

    Time Temperature Precipitation Wind Pressure Humidity
    00:00 +16°C° 0.8 mm 3 mps 752 mmHg 85%
    01:00 +16°C° 1 mm 3 mps 752 mmHg 86%
    02:00 +16°C° 1 mm 3 mps 752 mmHg 87%
    03:00 +15°C° 0 mm 2 mps 752 mmHg 86%
    04:00 +15°C° 0.6 mm 2 mps 752 mmHg 86%
    05:00 +14°C° 0.6 mm 3 mps 752 mmHg 85%
    06:00 +14°C° 0.6 mm 3 mps 752 mmHg 84%
    07:00 +14°C° 0.1 mm 4 mps 752 mmHg 78%
    08:00 +15°C° 0.1 mm 4 mps 753 mmHg 72%
    09:00 +15°C° 0.1 mm 5 mps 753 mmHg 65%
    10:00 +16°C° 0 mm 5 mps 753 mmHg 58%
    11:00 +17°C° 0 mm 5 mps 753 mmHg 51%
    12:00 +19°C° 0 mm 5 mps 753 mmHg 45%
    13:00 +20°C° 0 mm 5 mps 753 mmHg 43%
    14:00 +20°C° 0 mm 4 mps 752 mmHg 41%
    15:00 +20°C° 0 mm 4 mps 752 mmHg 39%
    16:00 +19°C° 0.1 mm 4 mps 752 mmHg 44%
    17:00 +18°C° 0.1 mm 3 mps 752 mmHg 48%
    18:00 +17°C° 0.1 mm 2 mps 752 mmHg 52%
    19:00 +17°C° 0.4 mm 2 mps 752 mmHg 57%
    20:00 +16°C° 0.4 mm 2 mps 752 mmHg 61%
    21:00 +16°C° 0.4 mm 2 mps 752 mmHg 66%
    22:00 +15°C° 0.8 mm 2 mps 752 mmHg 72%
    23:00 +15°C° 0.8 mm 2 mps 751 mmHg 78%

    Tomorrow, 23 October, Tuesday

    Time Temperature Precipitation Wind Pressure Humidity
    00:00 +15°C° 0.8 mm 2 mps 751 mmHg 83%
    01:00 +14°C° 0.2 mm 3 mps 751 mmHg 86%
    02:00 +14°C° 0.2 mm 3 mps 751 mmHg 88%
    03:00 +14°C° 0.2 mm 3 mps 751 mmHg 91%
    04:00 +14°C° 0.1 mm 3 mps 750 mmHg 91%
    05:00 +13°C° 0.1 mm 4 mps 750 mmHg 92%
    06:00 +13°C° 0.1 mm 4 mps 750 mmHg 92%
    07:00 +13°C° 0 mm 4 mps 750 mmHg 90%
    08:00 +13°C° 0 mm 4 mps 750 mmHg 87%
    09:00 +14°C° 0 mm 4 mps 750 mmHg 85%
    10:00 +14°C° 0 mm 5 mps 750 mmHg 82%
    11:00 +14°C° 0 mm 5 mps 750 mmHg 80%
    12:00 +14°C° 0 mm 5 mps 750 mmHg 78%
    13:00 +14°C° 0 mm 5 mps 750 mmHg 76%
    14:00 +14°C° 0 mm 5 mps 749 mmHg 74%
    15:00 +13°C° 0 mm 5 mps 749 mmHg 71%
    16:00 +13°C° 0 mm 5 mps 749 mmHg 72%
    17:00 +12°C° 0 mm 4 mps 749 mmHg 72%
    18:00 +12°C° 0 mm 3 mps 748 mmHg 73%
    19:00 +11°C° 0 mm 3 mps 748 mmHg 74%
    20:00 +11°C° 0 mm 3 mps 748 mmHg 75%
    21:00 +10°C° 0 mm 3 mps 748 mmHg 77%
    22:00 +10°C° 0 mm 3 mps 748 mmHg 78%
    23:00 +9°C° 0 mm 3 mps 748 mmHg 78%

    Day after tomorrow, 24 October, Wednesday

    Time Temperature Precipitation Wind Pressure Humidity
    00:00 +9°C° 0 mm 3 mps 747 mmHg 79%
    01:00 +9°C° 0 mm 3 mps 747 mmHg 80%
    02:00 +9°C° 0 mm 3 mps 746 mmHg 81%
    03:00 +8°C° 0 mm 3 mps 746 mmHg 82%
    04:00 +8°C° 0 mm 3 mps 746 mmHg 82%
    05:00 +7°C° 0 mm 4 mps 745 mmHg 83%
    06:00 +7°C° 0 mm 4 mps 744 mmHg 83%
    07:00 +8°C° 0 mm 5 mps 744 mmHg 79%
    08:00 +9°C° 0 mm 6 mps 744 mmHg 74%
    09:00 +10°C° 0 mm 7 mps 743 mmHg 70%
    10:00 +12°C° 0 mm 7 mps 743 mmHg 64%
    11:00 +13°C° 0 mm 8 mps 742 mmHg 59%
    12:00 +15°C° 0 mm 8 mps 741 mmHg 53%
    13:00 +16°C° 0 mm 8 mps 740 mmHg 54%
    14:00 +16°C° 0 mm 8 mps 740 mmHg 55%
    15:00 +16°C° 0 mm 8 mps 739 mmHg 56%
    16:00 +16°C° 0 mm 7 mps 739 mmHg 59%
    17:00 +15°C° 0 mm 5 mps 738 mmHg 62%
    18:00 +14°C° 0 mm 4 mps 738 mmHg 65%
    19:00 +14°C° 0.1 mm 5 mps 737 mmHg 67%
    20:00 +14°C° 0.1 mm 5 mps 737 mmHg 70%
    21:00 +14°C° 0.1 mm 6 mps 737 mmHg 72%
    22:00 +13°C° 0.3 mm 6 mps 736 mmHg 74%
    23:00 +13°C° 0.3 mm 6 mps 736 mmHg 77%

    25 October, Thursday

    Time Temperature Precipitation Wind Pressure Humidity
    00:00 +13°C° 0.3 mm 6 mps 735 mmHg 79%
    01:00 +12°C° 0.1 mm 7 mps 735 mmHg 80%
    02:00 +12°C° 0.1 mm 7 mps 734 mmHg 80%
    03:00 +12°C° 0.1 mm 7 mps 734 mmHg 81%
    04:00 +11°C° 0.5 mm 7 mps 734 mmHg 79%
    05:00 +11°C° 0.5 mm 7 mps 734 mmHg 77%
    06:00 +10°C° 0.5 mm 8 mps 734 mmHg 75%
    07:00 +10°C° 0 mm 7 mps 735 mmHg 69%
    08:00 +9°C° 0 mm 7 mps 735 mmHg 64%
    09:00 +9°C° 0 mm 7 mps 736 mmHg 59%
    10:00 +9°C° 0 mm 7 mps 736 mmHg 57%
    11:00 +9°C° 0 mm 7 mps 736 mmHg 55%
    12:00 +10°C° 0 mm 8 mps 737 mmHg 53%
    13:00 +10°C° 0 mm 8 mps 737 mmHg 52%
    14:00 +10°C° 0 mm 8 mps 737 mmHg 52%
    15:00 +10°C° 0 mm 8 mps 737 mmHg 52%
    16:00 +9°C° 0 mm 7 mps 738 mmHg 54%
    17:00 +9°C° 0 mm 6 mps 738 mmHg 56%
    18:00 +8°C° 0 mm 5 mps 738 mmHg 58%
    19:00 +8°C° 0 mm 5 mps 738 mmHg 58%
    20:00 +8°C° 0 mm 5 mps 739 mmHg 58%
    21:00 +8°C° 0 mm 6 mps 739 mmHg 59%
    22:00 +7°C° 0 mm 5 mps 739 mmHg 60%
    23:00 +7°C° 0 mm 5 mps 740 mmHg 61%

    26 October, Friday

    Time Temperature Precipitation Wind Pressure Humidity
    00:00 +6°C° 0 mm 5 mps 740 mmHg 62%
    01:00 +6°C° 0 mm 5 mps 740 mmHg 65%
    02:00 +6°C° 0 mm 4 mps 740 mmHg 68%
    03:00 +5°C° 0 mm 4 mps 740 mmHg 72%
    04:00 +5°C° 0 mm 4 mps 741 mmHg 74%
    05:00 +5°C° 0 mm 4 mps 741 mmHg 77%
    06:00 +4°C° 0 mm 4 mps 741 mmHg 79%
    07:00 +5°C° 0 mm 4 mps 742 mmHg 75%
    08:00 +6°C° 0 mm 5 mps 742 mmHg 70%
    09:00 +6°C° 0 mm 5 mps 743 mmHg 65%
    10:00 +7°C° 0 mm 4 mps 743 mmHg 59%
    11:00 +8°C° 0 mm 4 mps 743 mmHg 54%
    12:00 +10°C° 0 mm 4 mps 743 mmHg 48%
    13:00 +10°C° 0.1 mm 3 mps 743 mmHg 48%
    14:00 +10°C° 0.1 mm 3 mps 743 mmHg 49%
    15:00 +10°C° 0.1 mm 3 mps 743 mmHg 49%
    16:00 +9°C° 0.3 mm 3 mps 744 mmHg 52%
    17:00 +8°C° 0.3 mm 3 mps 745 mmHg 54%
    18:00 +8°C° 0.3 mm 3 mps 746 mmHg 57%
    19:00 +7°C° 0 mm 3 mps 747 mmHg 59%
    20:00 +7°C° 0 mm 3 mps 747 mmHg 60%
    21:00 +5°C° 0 mm 3 mps 748 mmHg 61%
    22:00 +5°C° 0 mm 4 mps 749 mmHg 63%
    23:00 +4°C° 0 mm 4 mps 750 mmHg 65%

    27 October, Saturday

    Time Temperature Precipitation Wind Pressure Humidity
    00:00 +4°C° 0 mm 4 mps 751 mmHg 67%
    01:00 +4°C° 0 mm 4 mps 752 mmHg 68%
    02:00 +4°C° 0 mm 3 mps 752 mmHg 69%
    03:00 +3°C° 0 mm 3 mps 753 mmHg 71%
    04:00 +3°C° 0 mm 3 mps 754 mmHg 72%
    05:00 +3°C° 0 mm 3 mps 754 mmHg 73%
    06:00 +3°C° 0 mm 3 mps 755 mmHg 74%
    07:00 +4°C° 0 mm 3 mps 755 mmHg 70%
    08:00 +5°C° 0 mm 3 mps 756 mmHg 66%
    09:00 +7°C° 0 mm 3 mps 757 mmHg 62%
    10:00 +8°C° 0 mm 4 mps 757 mmHg 58%
    11:00 +9°C° 0 mm 5 mps 757 mmHg 55%
    12:00 +10°C° 0 mm 6 mps 757 mmHg 51%
    13:00 +11°C° 0 mm 6 mps 757 mmHg 51%
    14:00 +11°C° 0 mm 6 mps 757 mmHg 50%
    15:00 +11°C° 0 mm 6 mps 757 mmHg 50%
    16:00 +10°C° 0 mm 5 mps 757 mmHg 56%
    17:00 +11°C° 0 mm 4 mps 757 mmHg 62%
    18:00 +10°C° 0 mm 3 mps 757 mmHg 69%
    19:00 +9°C° 0 mm 3 mps 757 mmHg 71%
    20:00 +9°C° 0 mm 3 mps 757 mmHg 73%
    21:00 +9°C° 0 mm 3 mps 757 mmHg 75%
    22:00 +9°C° 0 mm 3 mps 757 mmHg 75%
    23:00 +8°C° 0 mm 3 mps 757 mmHg 74%

    28 October, Sunday

    Time Temperature Precipitation Wind Pressure Humidity
    00:00 +8°C° 0 mm 3 mps 758 mmHg 73%
    01:00 +8°C° 0 mm 3 mps 758 mmHg 75%
    02:00 +7°C° 0 mm 4 mps 758 mmHg 77%
    03:00 +7°C° 0 mm 4 mps 758 mmHg 79%
    04:00 +7°C° 0 mm 4 mps 758 mmHg 82%
    05:00 +7°C° 0 mm 4 mps 758 mmHg 85%
    06:00 +7°C° 0 mm 4 mps 758 mmHg 87%
    07:00 +8°C° 0 mm 5 mps 758 mmHg 80%
    08:00 +9°C° 0 mm 5 mps 759 mmHg 73%
    09:00 +10°C° 0 mm 6 mps 759 mmHg 66%
    10:00 +11°C° 0 mm 6 mps 759 mmHg 61%
    11:00 +14°C° 0 mm 6 mps 759 mmHg 55%
    12:00 +16°C° 0 mm 6 mps 759 mmHg 50%
    13:00 +16°C° 0 mm 6 mps 758 mmHg 48%
    14:00 +17°C° 0 mm 6 mps 758 mmHg 46%
    15:00 +17°C° 0 mm 6 mps 758 mmHg 44%
    16:00 +16°C° 0 mm 5 mps 758 mmHg 47%
    17:00 +15°C° 0 mm 4 mps 758 mmHg 50%
    18:00 +13°C° 0 mm 3 mps 758 mmHg 53%
    19:00 +13°C° 0 mm 3 mps 758 mmHg 54%
    20:00 +12°C° 0 mm 4 mps 758 mmHg 55%
    21:00 +12°C° 0 mm 4 mps 758 mmHg 55%
    22:00 +11°C° 0 mm 3 mps 758 mmHg 56%
    23:00 +11°C° 0 mm 3 mps 758 mmHg 57%
    Show more